Location: Bessat
(45.8735°N, 1.9924°E)
Time: 19:32:54
(UTC+00:00)

USA 305 - Pass Details

Date: 11 May 2021
Orbit: 567 x 573 km, 54.0° (Epoch: 07 May)

Event Time Altitude Azimuth Distance (km) Brightness Sun altitude
Rises 20:21:05 0° 302° (WNW) 2,773 8.5 -10.7°
Reaches altitude 10° 20:23:26 10° 309° (NW) 1,875 7.1 -11.0°
Maximum altitude 20:27:29 42° 21° (NNE) 827 3.9 -11.6°
Enters shadow 20:31:23 11° 92° (E) 1,811 5.0 -12.1°
